| time (UTC) | temp C | wind direction | speed KPH | gust KPH | rain 1hr cm | rain 24hr cm | rain mn cm | humidity % | barometer mb |
| 20260902143155 | 28 | 318 | 0.0 | 1.6 | 0.00 | 0.00 | 0.00 | 19 | 1017.3 |
| 20260902142651 | 27 | 124 | 0.0 | 1.6 | 0.00 | 0.00 | 0.00 | 20 | 1017.3 |
| 20260902142147 | 26 | 201 | 0.0 | 3.2 | 0.00 | 0.00 | 0.00 | 20 | 1017.5 |
| 20260902141646 | 25 | 274 | 0.0 | 3.2 | 0.00 | 0.00 | 0.00 | 21 | 1017.6 |
| 20260902141142 | 24 | 268 | 1.6 | 3.2 | 0.00 | 0.00 | 0.00 | 22 | 1017.4 |
| 20260902140637 | 23 | 226 | 1.6 | 3.2 | 0.00 | 0.00 | 0.00 | 23 | 1017.3 |
| 20260902140132 | 23 | 168 | 1.6 | 3.2 | 0.00 | 0.00 | 0.00 | 23 | 1017.2 |
| 20260902135631 | 22 | 249 | 3.2 | 3.2 | 0.00 | 0.00 | 0.00 | 23 | 1017.3 |
| 20260902135126 | 22 | 190 | 1.6 | 3.2 | 0.00 | 0.00 | 0.00 | 24 | 1016.9 |
| 20260902134622 | 22 | 274 | 3.2 | 4.8 | 0.00 | 0.00 | 0.00 | 24 | 1017.2 |
| 20260902134121 | 22 | 142 | 1.6 | 3.2 | 0.00 | 0.00 | 0.00 | 24 | 1016.9 |
| 20260902133621 | 22 | 322 | 0.0 | 3.2 | 0.00 | 0.00 | 0.00 | 24 | 1017.0 |
| 20260902133116 | 22 | 220 | 0.0 | 3.2 | 0.00 | 0.00 | 0.00 | 24 | 1016.9 |
| 20260902132612 | 22 | 141 | 0.0 | 3.2 | 0.00 | 0.00 | 0.00 | 24 | 1017.0 |
| 20260902132107 | 21 | 251 | 0.0 | 3.2 | 0.00 | 0.00 | 0.00 | 24 | 1016.9 |
| 20260902131603 | 22 | 128 | 0.0 | 3.2 | 0.00 | 0.00 | 0.00 | 23 | 1016.9 |
| 20260902131058 | 22 | 228 | 0.0 | 3.2 | 0.00 | 0.00 | 0.00 | 24 | 1016.8 |
| 20260902130554 | 21 | 183 | 1.6 | 3.2 | 0.00 | 0.00 | 0.00 | 25 | 1016.7 |
| 20260902130049 | 22 | 234 | 3.2 | 3.2 | 0.00 | 0.00 | 0.00 | 24 | 1016.8 |
| 20260902125544 | 22 | 174 | 0.0 | 3.2 | 0.00 | 0.00 | 0.00 | 24 | 1016.9 |
| 20260902125040 | 22 | 212 | 0.0 | 1.6 | 0.00 | 0.00 | 0.00 | 24 | 1016.8 |
| 20260902124536 | 22 | 225 | 1.6 | 3.2 | 0.00 | 0.00 | 0.00 | 23 | 1016.7 |
| 20260902124031 | 22 | 201 | 0.0 | 3.2 | 0.00 | 0.00 | 0.00 | 23 | 1016.6 |
| 20260902123526 | 22 | 238 | 1.6 | 1.6 | 0.00 | 0.00 | 0.00 | 23 | 1016.7 |
| 20260902123021 | 21 | 236 | 3.2 | 3.2 | 0.00 | 0.00 | 0.00 | 24 | 1016.8 |
| 20260902122520 | 22 | 231 | 3.2 | 6.4 | 0.00 | 0.00 | 0.00 | 23 | 1016.6 |
| 20260902122015 | 22 | 237 | 6.4 | 6.4 | 0.00 | 0.00 | 0.00 | 23 | 1016.8 |
| 20260902121510 | 22 | 225 | 3.2 | 4.8 | 0.00 | 0.00 | 0.00 | 23 | 1016.6 |
| 20260902121005 | 22 | 108 | 0.0 | 3.2 | 0.00 | 0.00 | 0.00 | 23 | 1016.6 |
| 20260902120502 | 22 | 235 | 4.8 | 4.8 | 0.00 | 0.00 | 0.00 | 22 | 1016.8 |
| 20260902120002 | 22 | 200 | 4.8 | 6.4 | 0.00 | 0.00 | 0.00 | 22 | 1016.6 |
| 20260902115457 | 23 | 218 | 4.8 | 6.4 | 0.00 | 0.00 | 0.00 | 22 | 1016.6 |
| 20260902114954 | 23 | 222 | 1.6 | 3.2 | 0.00 | 0.00 | 0.00 | 22 | 1016.3 |
| 20260902114449 | 23 | 201 | 0.0 | 3.2 | 0.00 | 0.00 | 0.00 | 22 | 1016.5 |
| 20260902113944 | 23 | 249 | 1.6 | 6.4 | 0.00 | 0.00 | 0.00 | 21 | 1016.5 |
| 20260902113440 | 23 | 219 | 3.2 | 6.4 | 0.00 | 0.00 | 0.00 | 21 | 1016.5 |
| 20260902112939 | 22 | 240 | 6.4 | 6.4 | 0.00 | 0.00 | 0.00 | 22 | 1016.6 |
| 20260902112436 | 23 | 191 | 1.6 | 3.2 | 0.00 | 0.00 | 0.00 | 21 | 1016.3 |
| 20260902111931 | 23 | 253 | 0.0 | 3.2 | 0.00 | 0.00 | 0.00 | 21 | 1016.6 |
| 20260902111427 | 23 | 219 | 0.0 | 3.2 | 0.00 | 0.00 | 0.00 | 21 | 1016.8 |
| 20260902110923 | 23 | 234 | 1.6 | 4.8 | 0.00 | 0.00 | 0.00 | 21 | 1016.7 |
| 20260902110420 | 23 | 242 | 0.0 | 4.8 | 0.00 | 0.00 | 0.00 | 21 | 1016.7 |
| 20260902105919 | 23 | 241 | 4.8 | 6.4 | 0.00 | 0.00 | 0.00 | 21 | 1016.5 |
| 20260902105414 | 23 | 205 | 3.2 | 3.2 | 0.00 | 0.00 | 0.00 | 21 | 1016.5 |
| 20260902104910 | 23 | 283 | 0.0 | 3.2 | 0.00 | 0.00 | 0.00 | 21 | 1016.7 |
| 20260902104406 | 23 | 77 | 0.0 | 3.2 | 0.00 | 0.00 | 0.00 | 20 | 1016.9 |
| 20260902103905 | 22 | 159 | 3.2 | 3.2 | 0.00 | 0.00 | 0.00 | 21 | 1016.6 |
| 20260902103400 | 23 | 180 | 0.0 | 3.2 | 0.00 | 0.00 | 0.00 | 21 | 1016.6 |
| 20260902102854 | 23 | 117 | 0.0 | 3.2 | 0.00 | 0.00 | 0.00 | 20 | 1016.7 |
| 20260902102353 | 22 | 226 | 4.8 | 6.4 | 0.00 | 0.00 | 0.00 | 20 | 1016.8 |
| 20260902101848 | 22 | 327 | 0.0 | 3.2 | 0.00 | 0.00 | 0.00 | 21 | 1016.8 |
| 20260902101343 | 23 | 240 | 3.2 | 6.4 | 0.00 | 0.00 | 0.00 | 20 | 1017.0 |
| 20260902100842 | 23 | 245 | 3.2 | 3.2 | 0.00 | 0.00 | 0.00 | 19 | 1016.9 |
| 20260902100337 | 23 | 10 | 1.6 | 1.6 | 0.00 | 0.00 | 0.00 | 20 | 1017.0 |
| 20260902095832 | 22 | 282 | 3.2 | 4.8 | 0.00 | 0.00 | 0.00 | 20 | 1017.0 |
| 20260902095331 | 22 | 267 | 1.6 | 3.2 | 0.00 | 0.00 | 0.00 | 20 | 1017.0 |
| 20260902094831 | 23 | 33 | 0.0 | 3.2 | 0.00 | 0.00 | 0.00 | 20 | 1017.0 |
| 20260902094328 | 23 | 117 | 0.0 | 1.6 | 0.00 | 0.00 | 0.00 | 19 | 1016.9 |
| 20260902093827 | 23 | 207 | 0.0 | 4.8 | 0.00 | 0.00 | 0.00 | 20 | 1017.0 |
| 20260902093322 | 22 | 218 | 0.0 | 3.2 | 0.00 | 0.00 | 0.00 | 20 | 1017.1 |
| 20260902092821 | 23 | 224 | 0.0 | 3.2 | 0.00 | 0.00 | 0.00 | 20 | 1016.9 |
| 20260902092317 | 23 | 141 | 0.0 | 3.2 | 0.00 | 0.00 | 0.00 | 20 | 1016.8 |
| 20260902091811 | 23 | 244 | 1.6 | 4.8 | 0.00 | 0.00 | 0.00 | 20 | 1017.1 |
| 20260902091307 | 23 | 262 | 3.2 | 4.8 | 0.00 | 0.00 | 0.00 | 19 | 1017.0 |
| 20260902090804 | 24 | 249 | 1.6 | 3.2 | 0.00 | 0.00 | 0.00 | 18 | 1017.1 |
| 20260902090302 | 24 | 337 | 4.8 | 4.8 | 0.00 | 0.00 | 0.00 | 18 | 1017.3 |
| 20260902085802 | 25 | 245 | 1.6 | 8.0 | 0.00 | 0.00 | 0.00 | 18 | 1017.3 |
| 20260902085257 | 24 | 251 | 4.8 | 9.7 | 0.00 | 0.00 | 0.00 | 18 | 1017.3 |
| 20260902084753 | 23 | 219 | 3.2 | 4.8 | 0.00 | 0.00 | 0.00 | 19 | 1017.3 |
| 20260902084248 | 23 | 292 | 3.2 | 4.8 | 0.00 | 0.00 | 0.00 | 19 | 1017.5 |
| 20260902083744 | 23 | 332 | 3.2 | 4.8 | 0.00 | 0.00 | 0.00 | 19 | 1017.3 |
| 20260902083238 | 25 | 249 | 1.6 | 6.4 | 0.00 | 0.00 | 0.00 | 18 | 1017.5 |
| 20260902082733 | 25 | 62 | 3.2 | 4.8 | 0.00 | 0.00 | 0.00 | 19 | 1017.6 |
| 20260902082230 | 26 | 299 | 8.0 | 14.5 | 0.00 | 0.00 | 0.00 | 16 | 1017.4 |
| 20260902081726 | 27 | 337 | 3.2 | 12.9 | 0.00 | 0.00 | 0.00 | 17 | 1017.5 |
| 20260902081221 | 26 | 331 | 8.0 | 8.0 | 0.00 | 0.00 | 0.00 | 16 | 1017.5 |
| 20260902080715 | 27 | 339 | 4.8 | 11.3 | 0.00 | 0.00 | 0.00 | 16 | 1017.2 |
| 20260902080207 | 26 | 12 | 9.7 | 14.5 | 0.00 | 0.00 | 0.00 | 17 | 1017.2 |
| 20260902075706 | 26 | 20 | 3.2 | 14.5 | 0.00 | 0.00 | 0.00 | 17 | 1017.4 |
| 20260902075202 | 26 | 350 | 6.4 | 9.7 | 0.00 | 0.00 | 0.00 | 17 | 1017.3 |
| 20260902074657 | 26 | 18 | 9.7 | 12.9 | 0.00 | 0.00 | 0.00 | 17 | 1017.3 |
| 20260902074152 | 26 | 16 | 4.8 | 9.7 | 0.00 | 0.00 | 0.00 | 17 | 1017.3 |
| 20260902073647 | 26 | 358 | 4.8 | 9.7 | 0.00 | 0.00 | 0.00 | 17 | 1017.4 |
| 20260902073144 | 26 | 359 | 4.8 | 9.7 | 0.00 | 0.00 | 0.00 | 17 | 1017.3 |
| 20260902072639 | 26 | 299 | 0.0 | 8.0 | 0.00 | 0.00 | 0.00 | 18 | 1017.2 |
| 20260902072135 | 26 | 355 | 3.2 | 4.8 | 0.00 | 0.00 | 0.00 | 18 | 1017.4 |
| 20260902071630 | 25 | 31 | 1.6 | 8.0 | 0.00 | 0.00 | 0.00 | 19 | 1017.3 |
| 20260902071126 | 24 | 86 | 0.0 | 3.2 | 0.00 | 0.00 | 0.00 | 22 | 1017.4 |
| 20260902070621 | 24 | 274 | 3.2 | 3.2 | 0.00 | 0.00 | 0.00 | 22 | 1017.3 |
| 20260902070116 | 25 | 18 | 3.2 | 3.2 | 0.00 | 0.00 | 0.00 | 21 | 1017.1 |
| 20260902065615 | 25 | 229 | 0.0 | 1.6 | 0.00 | 0.00 | 0.00 | 21 | 1017.2 |
| 20260902065111 | 25 | 282 | 0.0 | 4.8 | 0.00 | 0.00 | 0.00 | 21 | 1017.4 |
| 20260902064607 | 25 | 165 | 0.0 | 3.2 | 0.00 | 0.00 | 0.00 | 21 | 1017.3 |
| 20260902064101 | 25 | 299 | 3.2 | 8.0 | 0.00 | 0.00 | 0.00 | 21 | 1017.1 |
| 20260902063556 | 26 | 224 | 0.0 | 3.2 | 0.00 | 0.00 | 0.00 | 20 | 1017.1 |
| 20260902063051 | 25 | 312 | 3.2 | 4.8 | 0.00 | 0.00 | 0.00 | 20 | 1017.1 |
| 20260902062549 | 25 | 357 | 1.6 | 4.8 | 0.00 | 0.00 | 0.00 | 22 | 1017.1 |
| 20260902062046 | 25 | 68 | 0.0 | 3.2 | 0.00 | 0.00 | 0.00 | 22 | 1017.2 |
| 20260902061545 | 25 | 234 | 3.2 | 4.8 | 0.00 | 0.00 | 0.00 | 21 | 1017.0 |
| 20260902061041 | 25 | 297 | 3.2 | 3.2 | 0.00 | 0.00 | 0.00 | 21 | 1017.1 |
| 20260902060537 | 25 | 57 | 1.6 | 3.2 | 0.00 | 0.00 | 0.00 | 22 | 1016.9 |
| 20260902060034 | 25 | 355 | 1.6 | 3.2 | 0.00 | 0.00 | 0.00 | 22 | 1016.9 |
| 20260902055529 | 25 | 100 | 0.0 | 1.6 | 0.00 | 0.00 | 0.00 | 21 | 1017.0 |
| 20260902055024 | 25 | 128 | 0.0 | 3.2 | 0.00 | 0.00 | 0.00 | 21 | 1017.0 |
| 20260902054519 | 25 | 147 | 0.0 | 3.2 | 0.00 | 0.00 | 0.00 | 22 | 1016.8 |
| 20260902054015 | 25 | 158 | 0.0 | 1.6 | 0.00 | 0.00 | 0.00 | 22 | 1016.9 |
| 20260902053510 | 26 | 224 | 0.0 | 3.2 | 0.00 | 0.00 | 0.00 | 22 | 1016.9 |
| 20260902053010 | 27 | 263 | 0.0 | 3.2 | 0.00 | 0.00 | 0.00 | 20 | 1016.8 |
| 20260902052504 | 27 | 316 | 6.4 | 9.7 | 0.00 | 0.00 | 0.00 | 19 | 1017.0 |
| 20260902052000 | 27 | 68 | 0.0 | 3.2 | 0.00 | 0.00 | 0.00 | 19 | 1016.9 |
| 20260902051500 | 27 | 17 | 3.2 | 8.0 | 0.00 | 0.00 | 0.00 | 19 | 1017.0 |
| 20260902050958 | 27 | 357 | 3.2 | 8.0 | 0.00 | 0.00 | 0.00 | 19 | 1017.1 |
| 20260902050453 | 27 | 329 | 1.6 | 3.2 | 0.00 | 0.00 | 0.00 | 20 | 1017.1 |
| 20260902045948 | 27 | 64 | 0.0 | 6.4 | 0.00 | 0.00 | 0.00 | 20 | 1016.9 |
| 20260902045444 | 28 | 52 | 3.2 | 3.2 | 0.00 | 0.00 | 0.00 | 21 | 1017.0 |
| 20260902044940 | 27 | 77 | 4.8 | 4.8 | 0.00 | 0.00 | 0.00 | 22 | 1017.0 |
| 20260902044435 | 27 | 101 | 1.6 | 4.8 | 0.00 | 0.00 | 0.00 | 21 | 1017.0 |
| 20260902043930 | 27 | 74 | 0.0 | 3.2 | 0.00 | 0.00 | 0.00 | 21 | 1016.8 |
| 20260902043425 | 28 | 236 | 3.2 | 6.4 | 0.00 | 0.00 | 0.00 | 20 | 1016.8 |
| 20260902042920 | 28 | 239 | 3.2 | 4.8 | 0.00 | 0.00 | 0.00 | 21 | 1016.6 |
| 20260902042419 | 28 | 130 | 1.6 | 3.2 | 0.00 | 0.00 | 0.00 | 21 | 1016.5 |
| 20260902041915 | 28 | 123 | 3.2 | 3.2 | 0.00 | 0.00 | 0.00 | 20 | 1016.6 |
| 20260902041409 | 29 | 109 | 3.2 | 4.8 | 0.00 | 0.00 | 0.00 | 18 | 1016.6 |
| 20260902040911 | 29 | 197 | 0.0 | 3.2 | 0.00 | 0.00 | 0.00 | 18 | 1016.2 |
| 20260902040403 | 30 | 347 | 3.2 | 6.4 | 0.00 | 0.00 | 0.00 | 18 | 1016.2 |
| 20260902035902 | 30 | 353 | 3.2 | 9.7 | 0.00 | 0.00 | 0.00 | 18 | 1016.0 |
| 20260902035352 | 30 | 10 | 1.6 | 4.8 | 0.00 | 0.00 | 0.00 | 19 | 1015.9 |
| 20260902034851 | 30 | 111 | 0.0 | 3.2 | 0.00 | 0.00 | 0.00 | 19 | 1015.9 |
| 20260902034347 | 30 | 317 | 6.4 | 8.0 | 0.00 | 0.00 | 0.00 | 18 | 1015.9 |
| 20260902033845 | 30 | 322 | 0.0 | 3.2 | 0.00 | 0.00 | 0.00 | 19 | 1015.8 |
| 20260902033340 | 30 | 0 | 0.0 | 3.2 | 0.00 | 0.00 | 0.00 | 20 | 1015.6 |
| 20260902032839 | 30 | 30 | 3.2 | 3.2 | 0.00 | 0.00 | 0.00 | 19 | 1015.7 |
| 20260902032338 | 30 | 290 | 0.0 | 6.4 | 0.00 | 0.00 | 0.00 | 19 | 1015.5 |
| 20260902031833 | 31 | 250 | 6.4 | 11.3 | 0.00 | 0.00 | 0.00 | 19 | 1015.4 |
| 20260902031329 | 31 | 280 | 1.6 | 11.3 | 0.00 | 0.00 | 0.00 | 19 | 1015.2 |
| 20260902030819 | 31 | 333 | 8.0 | 17.7 | 0.00 | 0.00 | 0.00 | 19 | 1015.2 |
| 20260902030313 | 31 | 298 | 9.7 | 9.7 | 0.00 | 0.00 | 0.00 | 19 | 1015.1 |
| 20260902025813 | 31 | 264 | 9.7 | 16.1 | 0.00 | 0.00 | 0.00 | 19 | 1015.3 |
| 20260902025309 | 31 | 303 | 9.7 | 17.7 | 0.00 | 0.00 | 0.00 | 19 | 1015.1 |
| 20260902024803 | 31 | 339 | 6.4 | 16.1 | 0.00 | 0.00 | 0.00 | 18 | 1014.9 |
| 20260902024258 | 31 | 328 | 11.3 | 17.7 | 0.00 | 0.00 | 0.00 | 18 | 1014.9 |
| 20260902023754 | 31 | 303 | 6.4 | 27.4 | 0.00 | 0.00 | 0.00 | 19 | 1014.7 |
| 20260902023249 | 31 | 271 | 6.4 | 25.7 | 0.00 | 0.00 | 0.00 | 18 | 1014.6 |
| 20260902022748 | 32 | 279 | 11.3 | 27.4 | 0.00 | 0.00 | 0.00 | 19 | 1014.5 |
| 20260902022244 | 31 | 327 | 11.3 | 19.3 | 0.00 | 0.00 | 0.00 | 20 | 1014.6 |
| 20260902021739 | 32 | 244 | 16.1 | 24.1 | 0.00 | 0.00 | 0.00 | 22 | 1014.5 |
| 20260902021233 | 32 | 293 | 11.3 | 19.3 | 0.00 | 0.00 | 0.00 | 22 | 1014.3 |
| 20260902020730 | 32 | 244 | 24.1 | 27.4 | 0.00 | 0.00 | 0.00 | 22 | 1014.3 |
| 20260902020225 | 32 | 229 | 12.9 | 16.1 | 0.00 | 0.00 | 0.00 | 22 | 1014.3 |
| 20260902015720 | 32 | 312 | 6.4 | 14.5 | 0.00 | 0.00 | 0.00 | 22 | 1014.3 |
| 20260902015217 | 32 | 291 | 9.7 | 17.7 | 0.00 | 0.00 | 0.00 | 21 | 1014.4 |
| 20260902014712 | 33 | 262 | 12.9 | 22.5 | 0.00 | 0.00 | 0.00 | 19 | 1013.9 |
| 20260902014209 | 33 | 239 | 19.3 | 27.4 | 0.00 | 0.00 | 0.00 | 20 | 1014.0 |
| 20260902013707 | 33 | 296 | 12.9 | 30.6 | 0.00 | 0.00 | 0.00 | 20 | 1014.0 |
| 20260902013203 | 33 | 284 | 9.7 | 24.1 | 0.00 | 0.00 | 0.00 | 20 | 1013.9 |
| 20260902012658 | 33 | 230 | 1.6 | 9.7 | 0.00 | 0.00 | 0.00 | 19 | 1013.9 |
| 20260902012153 | 33 | 271 | 8.0 | 27.4 | 0.00 | 0.00 | 0.00 | 18 | 1013.8 |
| 20260902011648 | 33 | 280 | 9.7 | 27.4 | 0.00 | 0.00 | 0.00 | 19 | 1013.7 |
| 20260902011143 | 33 | 246 | 8.0 | 19.3 | 0.00 | 0.00 | 0.00 | 21 | 1013.9 |
| 20260902010642 | 35 | 279 | 11.3 | 27.4 | 0.00 | 0.00 | 0.00 | 21 | 1013.8 |
| 20260902010139 | 35 | 263 | 8.0 | 20.9 | 0.00 | 0.00 | 0.00 | 20 | 1013.7 |
| 20260902005636 | 35 | 3 | 4.8 | 11.3 | 0.00 | 0.00 | 0.00 | 21 | 1014.0 |
| 20260902005132 | 36 | 312 | 6.4 | 27.4 | 0.00 | 0.00 | 0.00 | 18 | 1013.9 |
| 20260902004632 | 35 | 241 | 8.0 | 19.3 | 0.00 | 0.00 | 0.00 | 20 | 1014.1 |
| 20260902004127 | 36 | 243 | 11.3 | 12.9 | 0.00 | 0.00 | 0.00 | 17 | 1014.1 |
| 20260902003622 | 36 | 286 | 8.0 | 16.1 | 0.00 | 0.00 | 0.00 | 19 | 1013.8 |
| 20260902003118 | 36 | 297 | 6.4 | 16.1 | 0.00 | 0.00 | 0.00 | 19 | 1014.1 |
| 20260902002613 | 36 | 267 | 9.7 | 16.1 | 0.00 | 0.00 | 0.00 | 18 | 1014.0 |
| 20260902002108 | 36 | 251 | 11.3 | 16.1 | 0.00 | 0.00 | 0.00 | 19 | 1014.1 |
| 20260902001602 | 36 | 241 | 16.1 | 25.7 | 0.00 | 0.00 | 0.00 | 18 | 1014.1 |
| 20260902001052 | 37 | 265 | 6.4 | 17.7 | 0.00 | 0.00 | 0.00 | 19 | 1013.9 |
| 20260902000546 | 37 | 312 | 8.0 | 16.1 | 0.00 | 0.00 | 0.00 | 18 | 1014.2 |
| 20260902000042 | 36 | 273 | 8.0 | 19.3 | 0.00 | 0.00 | 0.00 | 18 | 1014.0 |
| 20260901235541 | 37 | 262 | 8.0 | 20.9 | 0.00 | 0.00 | 0.00 | 19 | 1014.2 |
| 20260901235038 | 37 | 272 | 8.0 | 14.5 | 0.00 | 0.00 | 0.00 | 19 | 1014.0 |
| 20260901234536 | 37 | 247 | 14.5 | 25.7 | 0.00 | 0.00 | 0.00 | 19 | 1014.0 |
| 20260901234032 | 37 | 294 | 4.8 | 17.7 | 0.00 | 0.00 | 0.00 | 19 | 1014.2 |
| 20260901233531 | 37 | 234 | 22.5 | 27.4 | 0.00 | 0.00 | 0.00 | 19 | 1014.1 |
| 20260901233028 | 37 | 319 | 6.4 | 17.7 | 0.00 | 0.00 | 0.00 | 19 | 1014.1 |
| 20260901232523 | 37 | 233 | 4.8 | 17.7 | 0.00 | 0.00 | 0.00 | 19 | 1014.2 |
| 20260901232018 | 38 | 61 | 6.4 | 14.5 | 0.00 | 0.00 | 0.00 | 19 | 1014.3 |
| 20260901231514 | 37 | 232 | 16.1 | 30.6 | 0.00 | 0.00 | 0.00 | 18 | 1014.2 |
| 20260901231011 | 37 | 291 | 9.7 | 19.3 | 0.00 | 0.00 | 0.00 | 18 | 1014.2 |
| 20260901230510 | 38 | 261 | 6.4 | 16.1 | 0.00 | 0.00 | 0.00 | 17 | 1014.3 |
| 20260901230006 | 37 | 227 | 14.5 | 20.9 | 0.00 | 0.00 | 0.00 | 17 | 1014.3 |
| 20260901225500 | 37 | 288 | 4.8 | 19.3 | 0.00 | 0.00 | 0.00 | 17 | 1014.4 |
| 20260901224954 | 37 | 278 | 12.9 | 24.1 | 0.00 | 0.00 | 0.00 | 17 | 1014.4 |
| 20260901224450 | 38 | 251 | 6.4 | 14.5 | 0.00 | 0.00 | 0.00 | 16 | 1014.4 |
| 20260901223946 | 38 | 224 | 6.4 | 12.9 | 0.00 | 0.00 | 0.00 | 17 | 1014.5 |
| 20260901223442 | 38 | 257 | 12.9 | 19.3 | 0.00 | 0.00 | 0.00 | 17 | 1014.5 |
| 20260901222937 | 38 | 250 | 17.7 | 25.7 | 0.00 | 0.00 | 0.00 | 16 | 1014.5 |
| 20260901222433 | 38 | 249 | 14.5 | 17.7 | 0.00 | 0.00 | 0.00 | 16 | 1014.5 |
| 20260901221929 | 39 | 264 | 8.0 | 22.5 | 0.00 | 0.00 | 0.00 | 16 | 1014.5 |
| 20260901221425 | 38 | 233 | 14.5 | 22.5 | 0.00 | 0.00 | 0.00 | 16 | 1014.5 |
| 20260901220920 | 38 | 256 | 17.7 | 24.1 | 0.00 | 0.00 | 0.00 | 16 | 1014.5 |
| 20260901220419 | 38 | 244 | 9.7 | 17.7 | 0.00 | 0.00 | 0.00 | 16 | 1014.5 |
| 20260901215918 | 37 | 234 | 6.4 | 30.6 | 0.00 | 0.00 | 0.00 | 16 | 1014.7 |
| 20260901215416 | 38 | 252 | 9.7 | 27.4 | 0.00 | 0.00 | 0.00 | 17 | 1014.7 |
| 20260901214916 | 38 | 231 | 9.7 | 33.8 | 0.00 | 0.00 | 0.00 | 16 | 1014.7 |
| 20260901214414 | 39 | 243 | 24.1 | 27.4 | 0.00 | 0.00 | 0.00 | 15 | 1014.9 |
| 20260901213914 | 38 | 232 | 30.6 | 43.5 | 0.00 | 0.00 | 0.00 | 15 | 1014.7 |
| 20260901213409 | 39 | 221 | 14.5 | 25.7 | 0.00 | 0.00 | 0.00 | 15 | 1014.9 |
| 20260901212903 | 38 | 219 | 9.7 | 30.6 | 0.00 | 0.00 | 0.00 | 16 | 1015.0 |
| 20260901212358 | 38 | 230 | 20.9 | 27.4 | 0.00 | 0.00 | 0.00 | 16 | 1015.1 |
| 20260901211855 | 38 | 252 | 14.5 | 29.0 | 0.00 | 0.00 | 0.00 | 17 | 1015.2 |
| 20260901211350 | 39 | 240 | 14.5 | 24.1 | 0.00 | 0.00 | 0.00 | 16 | 1015.1 |
| 20260901210846 | 38 | 233 | 17.7 | 33.8 | 0.00 | 0.00 | 0.00 | 16 | 1015.1 |
| 20260901210341 | 38 | 231 | 19.3 | 33.8 | 0.00 | 0.00 | 0.00 | 15 | 1015.2 |
| 20260901205838 | 38 | 174 | 4.8 | 24.1 | 0.00 | 0.00 | 0.00 | 17 | 1015.2 |
| 20260901205337 | 38 | 219 | 6.4 | 25.7 | 0.00 | 0.00 | 0.00 | 17 | 1015.2 |
| 20260901204832 | 38 | 229 | 11.3 | 20.9 | 0.00 | 0.00 | 0.00 | 16 | 1015.4 |
| 20260901204329 | 38 | 232 | 16.1 | 33.8 | 0.00 | 0.00 | 0.00 | 16 | 1015.3 |
| 20260901203828 | 39 | 209 | 12.9 | 19.3 | 0.00 | 0.00 | 0.00 | 16 | 1015.3 |
| 20260901203322 | 38 | 217 | 11.3 | 20.9 | 0.00 | 0.00 | 0.00 | 15 | 1015.4 |
| 20260901202817 | 38 | 217 | 20.9 | 32.2 | 0.00 | 0.00 | 0.00 | 15 | 1015.5 |
| 20260901202312 | 38 | 230 | 16.1 | 29.0 | 0.00 | 0.00 | 0.00 | 16 | 1015.4 |
| 20260901201809 | 38 | 250 | 20.9 | 30.6 | 0.00 | 0.00 | 0.00 | 15 | 1015.5 |
| 20260901201308 | 38 | 229 | 14.5 | 29.0 | 0.00 | 0.00 | 0.00 | 16 | 1015.7 |
| 20260901200802 | 38 | 202 | 8.0 | 20.9 | 0.00 | 0.00 | 0.00 | 16 | 1015.6 |
| 20260901200258 | 38 | 246 | 6.4 | 8.0 | 0.00 | 0.00 | 0.00 | 17 | 1015.7 |
| 20260901195755 | 38 | 348 | 11.3 | 12.9 | 0.00 | 0.00 | 0.00 | 17 | 1015.5 |
| 20260901195249 | 38 | 103 | 3.2 | 4.8 | 0.00 | 0.00 | 0.00 | 17 | 1015.9 |
| 20260901194745 | 38 | 259 | 3.2 | 6.4 | 0.00 | 0.00 | 0.00 | 17 | 1015.6 |
| 20260901194240 | 38 | 344 | 1.6 | 6.4 | 0.00 | 0.00 | 0.00 | 18 | 1015.7 |
| 20260901193736 | 37 | 336 | 8.0 | 9.7 | 0.00 | 0.00 | 0.00 | 18 | 1016.0 |
| 20260901193235 | 36 | 236 | 1.6 | 16.1 | 0.00 | 0.00 | 0.00 | 18 | 1016.0 |
| 20260901192730 | 37 | 238 | 3.2 | 9.7 | 0.00 | 0.00 | 0.00 | 18 | 1016.1 |
| 20260901192225 | 37 | 75 | 6.4 | 8.0 | 0.00 | 0.00 | 0.00 | 18 | 1016.0 |
| 20260901191721 | 37 | 56 | 3.2 | 11.3 | 0.00 | 0.00 | 0.00 | 18 | 1016.1 |
| 20260901191219 | 37 | 83 | 3.2 | 6.4 | 0.00 | 0.00 | 0.00 | 18 | 1016.3 |
| 20260901190713 | 37 | 76 | 6.4 | 8.0 | 0.00 | 0.00 | 0.00 | 18 | 1016.1 |
| 20260901190212 | 36 | 358 | 6.4 | 9.7 | 0.00 | 0.00 | 0.00 | 19 | 1016.3 |
| 20260901185711 | 37 | 357 | 8.0 | 12.9 | 0.00 | 0.00 | 0.00 | 19 | 1016.5 |
| 20260901185209 | 37 | 83 | 0.0 | 4.8 | 0.00 | 0.00 | 0.00 | 18 | 1016.6 |
| 20260901184705 | 36 | 269 | 0.0 | 8.0 | 0.00 | 0.00 | 0.00 | 19 | 1016.7 |
| 20260901184159 | 36 | 286 | 0.0 | 4.8 | 0.00 | 0.00 | 0.00 | 19 | 1016.8 |
| 20260901183650 | 36 | 96 | 4.8 | 9.7 | 0.00 | 0.00 | 0.00 | 19 | 1016.7 |
| 20260901183149 | 36 | 101 | 4.8 | 9.7 | 0.00 | 0.00 | 0.00 | 19 | 1016.8 |
| 20260901182646 | 36 | 98 | 8.0 | 12.9 | 0.00 | 0.00 | 0.00 | 18 | 1016.7 |
| 20260901182144 | 36 | 85 | 8.0 | 8.0 | 0.00 | 0.00 | 0.00 | 19 | 1016.7 |
| 20260901181639 | 35 | 113 | 3.2 | 12.9 | 0.00 | 0.00 | 0.00 | 19 | 1016.9 |
| 20260901181134 | 36 | 77 | 4.8 | 8.0 | 0.00 | 0.00 | 0.00 | 18 | 1017.0 |
| 20260901180634 | 36 | 2 | 3.2 | 11.3 | 0.00 | 0.00 | 0.00 | 18 | 1017.0 |
| 20260901180128 | 36 | 78 | 4.8 | 9.7 | 0.00 | 0.00 | 0.00 | 18 | 1017.0 |
| 20260901175627 | 36 | 96 | 3.2 | 6.4 | 0.00 | 0.00 | 0.00 | 18 | 1017.1 |
| 20260901175121 | 35 | 101 | 3.2 | 11.3 | 0.00 | 0.00 | 0.00 | 18 | 1017.1 |
| 20260901174617 | 36 | 75 | 4.8 | 9.7 | 0.00 | 0.00 | 0.00 | 17 | 1017.1 |
| 20260901174113 | 36 | 51 | 3.2 | 9.7 | 0.00 | 0.00 | 0.00 | 17 | 1017.1 |
| 20260901173607 | 35 | 0 | 0.0 | 4.8 | 0.00 | 0.00 | 0.00 | 17 | 1017.3 |
| 20260901173103 | 35 | 321 | 0.0 | 6.4 | 0.00 | 0.00 | 0.00 | 17 | 1017.1 |
| 20260901172559 | 36 | 86 | 4.8 | 6.4 | 0.00 | 0.00 | 0.00 | 17 | 1017.3 |
| 20260901172057 | 35 | 326 | 3.2 | 6.4 | 0.00 | 0.00 | 0.00 | 17 | 1017.1 |
| 20260901171556 | 35 | 78 | 3.2 | 3.2 | 0.00 | 0.00 | 0.00 | 16 | 1017.1 |
| 20260901171055 | 35 | 358 | 4.8 | 4.8 | 0.00 | 0.00 | 0.00 | 18 | 1017.3 |
| 20260901170549 | 35 | 103 | 3.2 | 4.8 | 0.00 | 0.00 | 0.00 | 16 | 1017.1 |
| 20260901170044 | 35 | 84 | 3.2 | 6.4 | 0.00 | 0.00 | 0.00 | 16 | 1016.9 |
| 20260901165543 | 33 | 76 | 0.0 | 6.4 | 0.00 | 0.00 | 0.00 | 17 | 1017.3 |
| 20260901165039 | 33 | 105 | 3.2 | 6.4 | 0.00 | 0.00 | 0.00 | 16 | 1017.3 |
| 20260901164535 | 34 | 77 | 3.2 | 6.4 | 0.00 | 0.00 | 0.00 | 15 | 1017.0 |
| 20260901164029 | 33 | 315 | 0.0 | 4.8 | 0.00 | 0.00 | 0.00 | 16 | 1017.1 |
| 20260901163525 | 34 | 259 | 1.6 | 3.2 | 0.00 | 0.00 | 0.00 | 15 | 1017.1 |
| 20260901163024 | 34 | 344 | 0.0 | 3.2 | 0.00 | 0.00 | 0.00 | 15 | 1017.0 |
| 20260901162519 | 33 | 89 | 1.6 | 3.2 | 0.00 | 0.00 | 0.00 | 15 | 1017.0 |
| 20260901162019 | 33 | 74 | 1.6 | 3.2 | 0.00 | 0.00 | 0.00 | 15 | 1017.0 |
| 20260901161518 | 33 | 60 | 0.0 | 4.8 | 0.00 | 0.00 | 0.00 | 15 | 1016.9 |
| 20260901161018 | 33 | 258 | 3.2 | 4.8 | 0.00 | 0.00 | 0.00 | 15 | 1017.0 |
| 20260901160514 | 33 | 103 | 3.2 | 4.8 | 0.00 | 0.00 | 0.00 | 15 | 1016.9 |
| 20260901160015 | 33 | 326 | 0.0 | 3.2 | 0.00 | 0.00 | 0.00 | 15 | 1016.7 |
| 20260901155513 | 33 | 43 | 3.2 | 3.2 | 0.00 | 0.00 | 0.00 | 15 | 1016.9 |
| 20260901155010 | 33 | 53 | 1.6 | 3.2 | 0.00 | 0.00 | 0.00 | 14 | 1016.9 |
| 20260901154510 | 32 | 269 | 0.0 | 3.2 | 0.00 | 0.00 | 0.00 | 15 | 1017.0 |
| 20260901154009 | 32 | 64 | 3.2 | 6.4 | 0.00 | 0.00 | 0.00 | 15 | 1016.9 |
| 20260901153505 | 31 | 74 | 1.6 | 6.4 | 0.00 | 0.00 | 0.00 | 15 | 1016.9 |
| 20260901153004 | 31 | 99 | 0.0 | 4.8 | 0.00 | 0.00 | 0.00 | 16 | 1016.7 |
| 20260901152459 | 31 | 269 | 0.0 | 3.2 | 0.00 | 0.00 | 0.00 | 16 | 1016.8 |
| 20260901151958 | 31 | 284 | 0.0 | 3.2 | 0.00 | 0.00 | 0.00 | 16 | 1016.8 |
| 20260901151454 | 31 | 85 | 0.0 | 3.2 | 0.00 | 0.00 | 0.00 | 16 | 1016.9 |
| 20260901150953 | 31 | 350 | 1.6 | 3.2 | 0.00 | 0.00 | 0.00 | 16 | 1016.9 |
| 20260901150451 | 30 | 113 | 0.0 | 3.2 | 0.00 | 0.00 | 0.00 | 17 | 1016.9 |
| 20260901145948 | 30 | 281 | 3.2 | 3.2 | 0.00 | 0.00 | 0.00 | 16 | 1016.9 |
| 20260901145443 | 30 | 282 | 0.0 | 3.2 | 0.00 | 0.00 | 0.00 | 18 | 1016.8 |
| 20260901144937 | 30 | 267 | 0.0 | 1.6 | 0.00 | 0.00 | 0.00 | 17 | 1016.7 |
| 20260901144432 | 30 | 65 | 1.6 | 3.2 | 0.00 | 0.00 | 0.00 | 16 | 1016.6 |
| 20260901143928 | 30 | 89 | 0.0 | 4.8 | 0.00 | 0.00 | 0.00 | 18 | 1016.8 |